Weather reports worldwide

Advertisment
Capo Carbonara, Italy (16564): temperature & dewpoint: 15.02.2019 22:00:00 - 21.02.2019 22:00:00 (CET)Capo Carbonara, Italy (16564): wind speed: 15.02.2019 22:00:00 - 21.02.2019 22:00:00 (CET)Capo Carbonara, Italy (16564): wind direction: 15.02.2019 22:00:00 - 21.02.2019 22:00:00 (CET)Capo Carbonara, Italy (16564): reduced air pressure: 15.02.2019 22:00:00 - 21.02.2019 22:00:00 (CET)Capo Carbonara, Italy (16564): visibility: 15.02.2019 22:00:00 - 21.02.2019 22:00:00 (CET)
Date & Time tt [°C] td [°C] ff [km/h] ff [kn] dd ppp [hPa] vv [km]
21.02.2019 22:00:00 - - - - - - -
21.02.2019 21:00:00 12,0 9,0 15 8 NNE - 10
21.02.2019 20:00:00 13,0 10,0 15 8 NNE - 10
21.02.2019 19:00:00 14,0 11,6 4 2 N 1028,1 20
21.02.2019 18:00:00 15,0 12,0 9 5 SSW - 10
21.02.2019 17:00:00 15,0 12,0 15 8 S - 10
21.02.2019 16:00:00 15,8 10,8 18 10 SSW 1027,6 20
21.02.2019 15:00:00 15,0 10,0 18 10 SSW - 10
21.02.2019 14:00:00 16,0 10,0 15 8 SSW - 10
21.02.2019 13:00:00 15,2 9,9 16 9 WSW 1028,0 20
21.02.2019 12:00:00 15,0 11,0 15 8 WSW - 10
21.02.2019 11:00:00 13,0 10,0 13 7 WSW - 10
21.02.2019 10:00:00 11,4 8,3 8 4 SW 1028,2 20
21.02.2019 09:00:00 11,0 7,0 0 0 N - 10
21.02.2019 08:00:00 11,0 8,0 0 0 N - 10
21.02.2019 07:00:00 10,8 7,5 4 2 E 1026,8 10
21.02.2019 06:00:00 11,0 8,0 2 1 ESE - 10
21.02.2019 05:00:00 11,0 8,0 4 2 WSW - 10
21.02.2019 04:00:00 11,0 7,9 9 5 ENE 1026,2 10
21.02.2019 03:00:00 11,0 8,0 13 7 WNW - 10
21.02.2019 02:00:00 11,0 8,0 21 11 W - 10
21.02.2019 01:00:00 11,6 8,7 13 7 W 1025,9 10
21.02.2019 00:00:00 12,0 8,0 4 2 W - 10
20.02.2019 23:00:00 12,0 9,0 2 1 ESE - 10
20.02.2019 22:00:00 12,4 9,4 5 3 SSE 1025,9 10
20.02.2019 21:00:00 13,0 10,0 9 5 SE - 10
20.02.2019 20:00:00 13,0 11,0 11 6 ESE - 10
20.02.2019 19:00:00 14,0 11,3 11 6 ESE 1024,7 10
20.02.2019 18:00:00 15,0 13,0 16 9 E - 10
20.02.2019 17:00:00 16,0 12,0 15 8 E - 10
20.02.2019 16:00:00 16,2 9,8 15 8 E 1023,6 20
20.02.2019 15:00:00 16,0 12,0 16 9 E - 10
20.02.2019 14:00:00 16,0 11,0 16 9 E - 10
20.02.2019 13:00:00 15,0 11,1 13 7 E 1023,8 20
20.02.2019 12:00:00 14,0 10,0 16 9 ENE - 10
20.02.2019 11:00:00 13,0 9,0 16 9 ENE - 10
20.02.2019 10:00:00 12,0 8,5 16 9 ENE 1023,5 20
20.02.2019 09:00:00 11,0 6,0 18 10 ENE - 10
20.02.2019 08:00:00 11,0 7,0 18 10 ENE - 10
20.02.2019 07:00:00 10,6 7,5 18 10 ENE 1022,3 10
20.02.2019 06:00:00 11,0 8,0 21 11 NE - 10
20.02.2019 05:00:00 12,0 9,0 16 9 E - 10
20.02.2019 04:00:00 11,6 8,7 16 9 E 1022,1 10
20.02.2019 03:00:00 12,0 8,0 16 9 E - 10
20.02.2019 02:00:00 12,0 9,0 16 9 E - 10
20.02.2019 01:00:00 11,8 9,0 18 10 ESE 1022,2 10
20.02.2019 00:00:00 12,0 9,0 16 9 E - 10
19.02.2019 23:00:00 12,0 9,0 18 10 E - 10
19.02.2019 22:00:00 12,0 9,5 21 11 E 1022,2 10
19.02.2019 21:00:00 12,0 10,0 21 11 E - 10
19.02.2019 20:00:00 12,0 10,0 18 10 E - 10
19.02.2019 19:00:00 12,2 9,8 21 11 E 1021,7 10
19.02.2019 18:00:00 16,0 13,0 24 13 E - 10
19.02.2019 17:00:00 16,0 13,0 24 13 E - 10
19.02.2019 16:00:00 16,0 11,8 21 11 E 1021,4 20
19.02.2019 15:00:00 16,0 11,0 22 12 E - 10
19.02.2019 14:00:00 16,0 12,0 22 12 E - 10
19.02.2019 13:00:00 16,2 12,3 22 12 E 1022,0 10
19.02.2019 12:00:00 16,0 12,0 22 12 E - 10
19.02.2019 11:00:00 14,0 10,0 24 13 E - 10
19.02.2019 10:00:00 13,0 9,7 26 14 E 1022,5 10
19.02.2019 09:00:00 12,0 9,0 26 14 E - 10
19.02.2019 08:00:00 12,0 9,0 26 14 E - 10
19.02.2019 07:00:00 11,8 9,2 22 12 E 1022,0 10
19.02.2019 06:00:00 12,0 10,0 24 13 E - 10
19.02.2019 05:00:00 12,0 10,0 22 12 E - 10
19.02.2019 04:00:00 11,6 9,5 22 12 E 1022,0 20
19.02.2019 03:00:00 12,0 9,0 21 11 E - 10
19.02.2019 02:00:00 12,0 9,0 24 13 ESE - 10
19.02.2019 01:00:00 11,6 9,2 21 11 ESE 1023,5 20
19.02.2019 00:00:00 12,0 9,0 24 13 E - 10
18.02.2019 23:00:00 12,0 9,0 22 12 E - 10
18.02.2019 22:00:00 11,8 9,5 24 13 E 1023,8 20
18.02.2019 21:00:00 12,0 9,0 22 12 E - 10
18.02.2019 20:00:00 12,0 10,0 24 13 E - 10
18.02.2019 19:00:00 11,8 9,5 22 12 E 1023,8 20
18.02.2019 18:00:00 12,0 10,0 28 15 E - 10
18.02.2019 17:00:00 15,0 11,0 22 12 E - 10
18.02.2019 16:00:00 15,8 10,8 24 13 E 1023,7 20
18.02.2019 15:00:00 16,0 11,0 26 14 E - 10
18.02.2019 14:00:00 16,0 12,0 26 14 E - 10
18.02.2019 13:00:00 16,2 12,2 24 13 E 1025,3 20
18.02.2019 12:00:00 16,0 12,0 26 14 E - 10
18.02.2019 11:00:00 14,0 10,0 22 12 E - 10
18.02.2019 10:00:00 12,0 8,5 24 13 E 1026,2 20
18.02.2019 09:00:00 11,0 9,0 22 12 ENE - 10
18.02.2019 08:00:00 11,0 9,0 21 11 ENE - 10
18.02.2019 07:00:00 10,8 9,2 21 11 ENE 1025,6 20
18.02.2019 06:00:00 11,0 9,0 13 7 E - 10
18.02.2019 05:00:00 11,0 9,0 11 6 ENE - 10
18.02.2019 04:00:00 10,6 8,1 9 5 E 1026,6 20
18.02.2019 03:00:00 11,0 8,0 8 4 ESE - 10
18.02.2019 02:00:00 11,0 9,0 9 5 E - 10
18.02.2019 01:00:00 10,6 9,0 8 4 E 1027,5 20
18.02.2019 00:00:00 11,0 9,0 5 3 E - 10
17.02.2019 23:00:00 11,0 9,0 8 4 SE - 10
17.02.2019 22:00:00 11,2 8,8 13 7 S 1027,6 20
17.02.2019 21:00:00 11,0 9,0 15 8 SE - 10
17.02.2019 20:00:00 12,0 9,0 15 8 SE - 10
17.02.2019 19:00:00 12,0 9,0 13 7 SE 1027,5 20
17.02.2019 18:00:00 13,0 -9,0 11 6 SE - 10
17.02.2019 17:00:00 15,0 9,0 11 6 SE - 10
17.02.2019 16:00:00 16,0 9,9 15 8 S 1028,2 20
17.02.2019 15:00:00 16,0 9,0 15 8 S - 10
17.02.2019 14:00:00 16,0 10,0 13 7 S - 10
17.02.2019 13:00:00 15,8 9,9 15 8 S 1029,8 20
17.02.2019 12:00:00 16,0 10,0 13 7 S - 10
17.02.2019 11:00:00 14,0 11,0 15 8 E - 10
17.02.2019 10:00:00 12,8 10,2 16 9 E 1030,0 20
17.02.2019 09:00:00 12,0 10,0 8 4 E - 10
17.02.2019 08:00:00 11,0 9,0 4 2 NW - 10
17.02.2019 07:00:00 11,2 8,7 5 3 WNW 1029,8 20
17.02.2019 06:00:00 11,0 9,0 11 6 W - 10
17.02.2019 05:00:00 11,0 8,0 9 5 W - 10
17.02.2019 04:00:00 11,2 8,3 9 5 W 1029,5 20
17.02.2019 03:00:00 11,0 9,0 11 6 W - 10
17.02.2019 02:00:00 11,0 10,0 16 9 W - 10
17.02.2019 01:00:00 11,8 9,9 13 7 W 1030,1 20
17.02.2019 00:00:00 12,0 10,0 15 8 WSW - 10
16.02.2019 23:00:00 12,0 10,0 13 7 WSW - 10
16.02.2019 22:00:00 12,2 10,4 13 7 WSW 1030,2 20
16.02.2019 21:00:00 12,0 10,0 15 8 SW - 10
16.02.2019 20:00:00 13,0 10,0 11 6 SSW - 10
16.02.2019 19:00:00 12,4 9,0 13 7 SSW 1029,9 20
16.02.2019 18:00:00 14,0 9,0 15 8 SSW - 10
16.02.2019 17:00:00 17,0 10,0 15 8 S - 10
16.02.2019 16:00:00 17,2 11,1 13 7 S 1029,5 20
16.02.2019 15:00:00 17,0 11,0 15 8 SSW - 10
16.02.2019 14:00:00 17,0 12,0 15 8 W - 10
16.02.2019 13:00:00 17,4 11,2 13 7 S 1030,0 20
16.02.2019 12:00:00 17,0 11,0 11 6 SSW - 10
16.02.2019 11:00:00 16,0 11,0 9 5 ESE - 10
16.02.2019 10:00:00 13,8 10,2 9 5 ESE 1029,6 20
16.02.2019 09:00:00 12,0 10,0 13 7 ESE - 10
16.02.2019 08:00:00 12,0 10,0 8 4 ENE - 10
16.02.2019 07:00:00 12,2 10,4 11 6 ESE 1028,2 20
16.02.2019 06:00:00 12,0 10,0 13 7 ENE - 10
16.02.2019 05:00:00 12,0 9,0 29 16 NNE - 10
16.02.2019 04:00:00 12,4 9,4 18 10 NNE 1027,2 20
16.02.2019 03:00:00 - - - - - - -
16.02.2019 02:00:00 13,0 10,0 18 10 NE - 10
16.02.2019 01:00:00 13,2 7,6 26 14 NE 1027,2 20
16.02.2019 00:00:00 13,0 9,0 15 8 E - 10
15.02.2019 23:00:00 14,0 4,0 9 5 N - 10
15.02.2019 22:00:00 13,8 4,7 4 2 N 1027,1 20

tt = temperature
td = dewpoint
ff = wind speed
dd = wind direction
ppp = reduced air pressure
vv = visibility

Next stations